Location: Ashton Hall
(13.2500°N, 59.6333°W)
Time: 23:57:02
(UTC+00:00)

Daily predictions for brighter satellites

Satellite Brightness Start Highest point End
(mag) Time Altitude Azimuth Time Altitude Azimuth Time Altitude Azimuth
Cosmos 1302 Rocket 4.1 22:19:36 10° S 22:24:39 54° ESE 22:29:41 10° NNE
Cosmos 2219 3.2 22:19:10 10° N 22:24:41 60° ENE 22:30:13 10° SSE
OAO 2 Rocket 3.7 22:19:39 10° NW 22:24:44 52° NNE 22:29:54 10° ESE
Cosmos 2322 Rocket 3.0 22:24:22 10° SSE 22:29:08 29° ESE 22:33:53 10° NE
Cosmos 1633 Rocket 4.0 22:25:51 10° SSE 22:29:29 26° E 22:33:06 10° NE
Okean O Rocket 3.8 22:35:46 10° SSW 22:39:36 30° W 22:43:26 10° NW
ERS-2 3.1 22:38:22 10° N 22:41:55 51° WNW 22:45:27 10° SSW
Meteor 1-20 Rocket 4.2 22:37:39 10° S 22:43:02 55° E 22:48:20 10° NNE
Atlas Centaur 2 3.0 22:37:31 10° NW 22:43:21 35° NNE 22:47:19 14° E
RESURS DK-1 2.4 22:41:11 10° N 22:45:13 54° ENE 22:49:15 10° SSE
CZ-4 R/B 1.4 22:42:05 10° SSE 22:45:48 50° ENE 22:49:30 10° N
IRS-1C Rocket 4.1 22:41:01 10° SSE 22:46:13 65° ENE 22:51:24 10° N
CZ-2C R/B 0.8 22:43:50 10° NW 22:46:56 51° NE 22:49:21 15° ESE
SL-16 R/B 2.2 22:42:58 10° S 22:48:35 67° ESE 22:54:11 10° NNE
ATLAS 5 CENTAUR R/B 1.5 22:47:26 10° NW 22:48:40 14° N 22:49:26 12° NNE
ATLAS CENTAUR R/B 2.9 22:46:55 10° SE 22:48:57 14° ESE 22:49:10 14° ESE
Cosmos 2082 4.1 22:44:58 10° N 22:50:07 37° ENE 22:55:16 10° SE
Cosmos 1741 Rocket 4.3 22:48:47 10° N 22:53:49 44° ENE 22:58:48 10° SSE
Delta 2 Rocket 4.0 22:50:26 10° SW 22:56:29 60° SSE 23:00:43 19° E
Ariane 44P Rocket 4.3 22:54:46 10° SW 22:58:02 34° SSE 23:06:20 14° ESE
SL-24 R/B - RUBIN 2 4.2 22:55:15 10° N 22:59:56 38° ENE 23:03:42 13° SE
Palapa 6 Rocket 4.5 22:52:27 10° WSW 23:00:16 83° NNW 23:06:24 19° ENE
Cosmos 1470 Rocket 4.1 22:57:34 10° SSE 23:01:37 35° E 23:05:41 10° NNE
HJ-1C 3.5 23:02:59 10° SSE 23:06:12 47° ENE 23:09:24 10° N
Cosmos 2154 Rocket 3.9 23:02:09 10° S 23:08:20 63° E 23:14:28 10° NNE
Ariane 42L Rocket 4.4 23:08:16 10° SW 23:11:48 16° SSW 23:13:53 11° SSE
BREEZE-M DEB (TANK) 4.5 23:07:31 10° NW 23:11:49 85° SW 23:28:28 10° SE
Meteor 1-14 Rocket 4.4 23:09:04 10° SSE 23:14:33 47° E 23:19:54 10° NNE
Cosmos 1602 3.7 23:10:59 10° S 23:14:47 84° W 23:18:39 10° N
SL-08 RB Rocket 3.9 23:12:55 10° SSE 23:17:09 44° ENE 23:21:24 10° N
DMSP B5D2-2 4.0 23:12:04 10° N 23:17:16 87° WNW 23:22:28 10° SSW
H-2A R/B 2.4 23:13:15 10° S 23:18:29 69° WSW 23:23:52 10° NNW
Cosmos 1610 Rocket 4.3 23:13:10 10° S 23:19:17 81° E 23:25:26 10° N
ARGOS 3.0 23:16:37 10° SSE 23:22:00 80° ENE 23:27:24 10° N
Cosmos 1933 Rocket 4.3 23:19:15 10° SSE 23:22:08 33° SE 23:22:08 33° SE
Milstar 3 3.6 23:10:16 10° WNW 23:24:26 76° NNE 23:29:10 29° ESE
Delta 168 4.4 23:21:35 10° SW 23:27:03 30° SSE 23:27:59 28° SE
Nadezhda 3 Rocket 4.5 23:21:45 10° NNE 23:32:18 14° SE 23:33:11 10° SSE
GPS 2-14 Rocket1 2.3 23:24:19 10° WSW 23:28:04 83° NNW 23:28:19 76° NE
Hubble Space Telescope 3.0 23:28:37 10° S 23:30:01 14° SSE 23:30:01 14° SSE
Cosmos 2227 Rocket 4.0 23:26:28 10° NW 23:31:25 32° WSW 23:36:22 10° SSW
GPS 2-15 Rocket1 3.9 23:28:16 10° WNW 23:32:53 39° N 23:33:38 36° NNE
Cosmos 1295 Rocket 4.4 23:27:49 10° S 23:34:10 90° WNW 23:40:28 10° N
Cosmos 2333 Rocket 4.2 23:29:57 10° SSE 23:30:27 12° SSE 23:30:27 12° SSE
CSL-04 Debris 4.1 23:30:29 10° SSE 23:35:52 87° WSW 23:41:18 10° NNW
Helios 1A Rocket 3.2 23:32:31 10° S 23:36:36 67° WSW 23:40:39 10° NNW
YAOGAN 1 4.3 23:34:55 10° SSW 23:38:47 32° W 23:42:39 10° NW
Okean-O 4.3 23:37:21 10° SSW 23:41:21 33° W 23:45:19 10° NW
CSL-04 Rocket 3.7 23:37:23 10° S 23:42:55 81° WSW 23:48:28 10° NNW
Cosmos 2360 Rocket 2.1 23:42:06 10° SSW 23:47:43 83° WNW 23:50:17 34° N
SME Rocket 4.0 23:44:57 10° N 23:51:16 63° WNW 23:55:39 10° SSW
ATLAS 3B CENTAUR R/B 4.0 23:37:56 10° WNW 23:51:24 48° SW 23:55:44 24° SSE
COSMOS 2455 3.5 23:45:39 10° N 23:49:34 38° NNE 23:49:34 38° NNE
DELTA 2 R/B (1) 3.6 23:46:58 10° SW 23:52:06 64° SSE 23:52:06 64° SSE
SWIFT 3.1 23:49:00 10° WSW 23:52:06 49° WSW 23:52:06 49° WSW
Cosmos 2341 Rocket 3.9 23:46:56 10° S 23:53:19 78° E 23:59:38 10° N
